Regional Weather Roundup
Issued by NWS Huntsville, AL

Home | Current Version | Previous Version | Text Only | Print | Product List | Glossary On
Versions: 1 2 3 4 5 6 7 8 9 10 11 12 13 14 15 16 17 18 19 20 21 22 23 24 25 26 27 28 29 30 31 32 33 34 35 36 37 38 39 40 41 42 43 44 45 46 47 48 49 50
000
ASUS44 KHUN 281710
RWRHUN

WEATHER ROUNDUP FOR THE TENNESSEE VALLEY
NATIONAL WEATHER SERVICE HUNTSVILLE AL
1200 PM CDT FRI APR 28 2017

ALZ001>004-281800-
NORTHWEST ALABAMA

CITY           SKY/WX    TMP DP  RH WIND       PRES   REMARKS
SHOALS AIRPORT CLOUDY    79  67  66 S9        29.92F
$$

ALZ005>007-016-281800-
NORTH CENTRAL ALABAMA

CITY           SKY/WX    TMP DP  RH WIND       PRES   REMARKS
DECATUR AP     CLOUDY    77  69  76 S20G26    29.95S
HUNTSVILLE AP  CLOUDY    80  70  71 S10G21    29.95S
MERIDIANVILLE  CLOUDY    77  64  65 S16       29.97S
REDSTONE ARSN  CLOUDY    77  68  73 S16       29.95S
VINEMONT AP    FAIR      79  67  65 S23G31    29.98F
$$

ALZ008>010-281800-
NORTHEAST ALABAMA

CITY           SKY/WX    TMP DP  RH WIND       PRES   REMARKS
ALBERTVILLE    PTSUNNY   77  72  83 S13G24    29.98F
FORT PAYNE     CLOUDY    73  63  68 S8        30.00F
SCOTTSBORO AP  PTSUNNY   77  68  73 S8G17     29.99S
SCOTTSBORO HCN   N/A     77 N/A N/A MISG        N/A
VALLEY HEAD      N/A     73 N/A N/A MISG        N/A
$$

TNZ076-096-097-281800-
SOUTHEASTERN MIDDLE TENNESSEE

CITY           SKY/WX    TMP DP  RH WIND       PRES   REMARKS
TULLAHOMA      CLOUDY    73  64  73 S8        29.98S
WINCHESTER     CLOUDY    73  64  73 S10       29.99R
$$

...SURROUNDING SITES...

CITY           SKY/WX    TMP DP  RH WIND       PRES   REMARKS
ATLANTA        MOSUNNY   80  65  59 S12G21    30.05S
ANNISTON       MOSUNNY   82  67  60 SW9G21    30.01R
BIRMINGHAM     CLOUDY    81  66  60 S17G26    30.01S
CHATTANOOGA    PTSUNNY   72  65  78 SW7       30.02F
CORINTH        CLOUDY    73  68  83 S12       29.87F
DALTON         PTSUNNY   77  68  73 SE8       30.01F
GADSDEN        CLOUDY   N/A N/A N/A S10G16    29.99F
GOLDEN TRNGL   CLOUDY    81  68  65 S21       29.86F FOG
HALEYVILLE     CLOUDY    78  70  76 S16G22    29.95F
JACKSON TN     CLOUDY    71  66  84 S7        29.85S
MEMPHIS        CLOUDY    73  68  84 S14       29.80S
NASHVILLE      PTSUNNY   78  64  61 SW16G22   29.94S
OXFORD MS      PTSUNNY   75  68  78 S6G16     29.85F
ROME           MOSUNNY   80  66  62 S12       30.00F
SAVANNAH       CLOUDY    75  68  78 S10G17    29.87F
TUPELO         CLOUDY    77  69  76 SE15G22   29.86F
TUSCALOOSA     CLOUDY    81  70  69 S12       29.94S
$$

...GULF COAST WEATHER...

CITY           SKY/WX    TMP DP  RH WIND       PRES   REMARKS
GULFPORT       CLOUDY    80  75  84 SE16G22   29.94R
PASCAGOULA     CLOUDY    80  73  79 SE13G23   29.96R
MOBILE         CLOUDY    83  72  69 S20       29.98R
GULF SHORES    CLOUDY    80  77  92 SE16G26   29.99S
PENSACOLA      PTSUNNY   80  74  81 SE16      29.99S
DESTIN         CLOUDY    83  78  85 SE13      30.01S HX  93
PANAMA CITY    SUNNY     82  72  70 S18G24    30.03S
APPALACHICOLA  MOSUNNY   81  75  82 SE9       30.05F
$$




USA.gov is the U.S. government's official web portal to all federal, state and local government web resources and services.